This is the latest recevied weather packets stored in our database for station/object W1CAT. If no packets are shown the sender has not sent any weather packets the latest 1 day(s).
| Time | Temp. | Humidity | Pressure | Rain* | Wind** | Luminosity | Snow |
|---|---|---|---|---|---|---|---|
| 1778031039 | 5° C | 64% | - | 0 mm | 4.02 m/s, 28° | - | - |
| 1778030735 | 5.56° C | 64% | - | 0 mm | 3.13 m/s, 121° | - | - |
| 1778030432 | 6.11° C | 61% | - | 0 mm | 4.02 m/s, 59° | - | - |
| 1778030130 | 6.11° C | 61% | - | 0 mm | 4.92 m/s, 16° | - | - |
| 1778029826 | 6.11° C | 61% | - | 0 mm | 4.02 m/s, 258° | - | - |
| 1778029525 | 6.67° C | 60% | - | 0 mm | 2.24 m/s, 237° | - | - |
| 1778029221 | 7.22° C | 59% | - | 0 mm | 4.47 m/s, 297° | - | - |
| 1778028918 | 7.78° C | 56% | - | 0 mm | 3.13 m/s, 56° | - | - |
| 1778028614 | 8.33° C | 54% | - | 0 mm | 4.02 m/s, 44° | - | - |
| 1778028312 | 8.33° C | 55% | - | 0 mm | 4.47 m/s, 109° | - | - |
| 1778028008 | 10° C | 52% | - | 0 mm | 2.24 m/s, 346° | - | - |
| 1778027705 | 11.11° C | 48% | - | 0 mm | 4.02 m/s, 348° | - | - |
| 1778027400 | 13.33° C | 31% | - | 0 mm | 1.34 m/s, 37° | - | - |
| 1778027097 | 13.33° C | 30% | - | 0 mm | 0.89 m/s, 117° | - | - |
| 1778026792 | 13.33° C | 31% | - | 0 mm | 0.89 m/s, 41° | - | - |
| 1778026489 | 15° C | 31% | - | 0 mm | 0.89 m/s, 51° | - | - |
| 1778026186 | 16.11° C | 28% | - | 0 mm | 0 m/s | - | - |
| 1778025884 | 16.11° C | 32% | - | 0 mm | 0.45 m/s, 103° | - | - |
| 1778025581 | 15° C | 34% | - | 0 mm | 1.34 m/s, 85° | - | - |
| 1778025279 | 13.89° C | 37% | - | 0 mm | 1.79 m/s, 125° | - | - |
| 1778024975 | 13.33° C | 38% | - | 0 mm | 0.89 m/s, 145° | - | - |
| 1778024673 | 12.78° C | 41% | - | 0 mm | 1.34 m/s, 99° | - | - |
| 1778024369 | 11.67° C | 43% | - | 0 mm | 0.89 m/s, 92° | - | - |
| 1778024067 | 12.22° C | 45% | - | 0 mm | 0.89 m/s, 171° | - | - |
| 1778023765 | 11.67° C | 44% | - | 0 mm | 0.89 m/s, 139° | - | - |
* Rain latest hour (hover to see other rain measurements)
** Current wind speed in m/s (hover to see current wind gust speed)